[[{"header":{"parameterUnit":"m.s-1","parameterCategory":1,"la1":30.2991,"la2":30.254,"lo1":-89.0895,"lo2":-89.0444,"dy":0.0017,"dx":0.0017,"nx":28,"ny":28,"refTime":"2025-05-19T21:00:00:Z","depth":0,"parameterNumber":2,"parameterNumberName":"U-component_of_WINDS"},"data":[0,0,0,0,0,0,0,0,0,0,0,0,0,0,0,0,0,0,0,0,0,0,0,0,0,0,0,0,0,0,0,0,0,0,0,0,0,0,0,0,0,0,0,0,0,0,0,0,0,0,0,0,0,0,0,0,0,0,0.057,0.057,0,0.0525,0.0524,0.0524,0.0481,0.048,0.048,0.0479,0.0432,0.0432,0.0431,0,0,0,0,0,0,0,0,0,0,0,0,0,0.0619,0.0618,0.057,0.057,0.0569,0.0525,0.0524,0.0524,0.0481,0.048,0.0479,0.0479,0.0433,0.0432,0.0431,0,0,0,0,0,0,0,0,0,0,0,0,0,0.0588,0.0618,0.057,0.0542,0.0539,0.0525,0.0524,0.0523,0.0481,0.048,0.0479,0.0479,0.0433,0.0432,0.0431,0.044,0,0,0.0427,0.0427,0,0,0,0,0,0,0,0,0.059,0.0586,0.0547,0.0544,0.0541,0.0508,0.0524,0.0496,0.0481,0.0503,0.0479,0.0478,0.0458,0.0455,0.0448,0.0438,0.0436,0.0427,0.0427,0.0426,0.0426,0,0,0,0,0,0,0,0.0592,0.0588,0.0552,0.0547,0.0543,0.0532,0.0526,0.0519,0.0486,0.0501,0.0498,0.0493,0.0456,0.0449,0.0447,0.0435,0.0427,0.0426,0.0426,0.0425,0.0429,0.043,0,0,0,0,0,0,0.0598,0.059,0.0554,0.0551,0.0564,0.0532,0.0526,0.0519,0.0486,0.048,0.0494,0.0491,0.0451,0.0448,0.0445,0.0453,0.0426,0.0425,0.0424,0.0429,0.0429,0.043,0,0,0,0,0,0,0.06,0.0596,0.0556,0.0569,0.0564,0.0532,0.0525,0.0519,0.0512,0.048,0.0474,0.0493,0.0451,0.0446,0.0441,0.0451,0.0425,0.0424,0.0428,0.0429,0.043,0.047,0,0,0,0,0,0,0.0601,0.0596,0.06,0.057,0.0563,0.0553,0.0525,0.0518,0.051,0.0506,0.0478,0.0472,0.045,0.0443,0.044,0.0449,0.0423,0.0427,0.0428,0.0429,0.0467,0.0472,0.0476,0,0,0,0,0,0.0603,0.0613,0.06,0.0596,0.0567,0.0554,0.055,0.0524,0.0511,0.0514,0.0493,0.0473,0.045,0.0443,0.0439,0.0448,0.0426,0.0428,0.0429,0.0466,0.0471,0.0476,0,0,0,0,0,0,0.0645,0.0609,0.0594,0.0595,0.0578,0.0547,0.055,0.0531,0.0518,0.0515,0.0483,0.0477,0.0475,0.0461,0.0454,0.0454,0.0435,0.0436,0.0464,0.0469,0.0473,0.0477,0.0422,0,0,0,0,0,0.0655,0.0648,0.0616,0.062,0.0612,0.0582,0.0576,0.0557,0.0538,0.0531,0.051,0.0492,0.0481,0.0474,0.0462,0.0465,0.0458,0.0469,0.0473,0.0477,0.0478,0.0478,0.0482,0.0436,0.0436,0.0436,0,0,0.0674,0.0653,0.0651,0.0627,0.0612,0.0605,0.0577,0.057,0.0565,0.053,0.0524,0.0508,0.0486,0.0485,0.0483,0.0473,0.0489,0.0479,0.0482,0.0481,0.048,0.0484,0.0488,0.0437,0.0437,0.0437,0,0,0.0705,0.0689,0.069,0.0675,0.0652,0.0632,0.0633,0.0604,0.0592,0.0585,0.0559,0.0551,0.0533,0.0518,0.0508,0.0532,0.0513,0.0529,0.0552,0.0552,0.0555,0.0558,0.0567,0.057,0.0531,0.0531,0.0531,0,0.0732,0.0721,0.0693,0.0688,0.0678,0.0646,0.0646,0.0633,0.0607,0.0601,0.059,0.0565,0.0548,0.0542,0.0548,0.0541,0.054,0.0532,0.0557,0.056,0.0562,0.057,0.0573,0.0533,0.0533,0.0532,0.0532,0,0.0755,0.0747,0.075,0.0726,0.0716,0.0714,0.0686,0.0679,0.0661,0.0643,0.0636,0.0614,0.0596,0.0594,0.0576,0.0585,0.0579,0.0563,0.0543,0.0569,0.0576,0.0578,0.0536,0.0535,0.0534,0.0534,0,0,0.0812,0.0772,0.0773,0.0761,0.0733,0.0726,0.0722,0.0705,0.07,0.0683,0.0678,0.0663,0.0647,0.0636,0.0616,0.0616,0.0636,0.06,0.0599,0.0607,0.0644,0.0656,0.066,0.0623,0.0623,0.0624,0.0646,0,0.0838,0.0829,0.0804,0.0802,0.0794,0.0763,0.0759,0.0742,0.0724,0.0714,0.0694,0.0683,0.0664,0.0657,0.0655,0.0634,0.0643,0.0632,0.0618,0.0618,0.0624,0.0664,0.0677,0.0698,0.0648,0.0648,0.0649,0,0.0868,0.0853,0.0851,0.0822,0.0818,0.0815,0.0796,0.0788,0.0766,0.0753,0.074,0.0718,0.0711,0.0693,0.0683,0.0676,0.0668,0.0657,0.0657,0.0655,0.0635,0.0662,0.0705,0.0708,0.0653,0.0652,0.0652,0,0.0909,0.0888,0.0884,0.0875,0.0841,0.084,0.0826,0.0804,0.0795,0.0778,0.0772,0.0755,0.0746,0.0734,0.0707,0.0696,0.07,0.0679,0.0688,0.0689,0.0691,0.0691,0.0733,0.0686,0.0686,0.0686,0.0686,0,0.0941,0.0941,0.0902,0.0899,0.0898,0.0868,0.0867,0.085,0.0831,0.0824,0.0796,0.079,0.0756,0.0746,0.0725,0.0719,0.0716,0.0704,0.0699,0.0707,0.0708,0.0701,0.0699,0.0687,0.0687,0.0687,0.0687,0,0.0987,0.0961,0.0954,0.0923,0.0915,0.0915,0.0888,0.0884,0.0864,0.0856,0.0852,0.0821,0.0808,0.078,0.0759,0.0745,0.0744,0.0735,0.0752,0.0748,0.0758,0.0758,0.0797,0.0801,0.0753,0.0753,0.0754,0,0.1009,0.1008,0.0977,0.097,0.0957,0.0947,0.0937,0.0908,0.0899,0.0874,0.0873,0.0857,0.0843,0.0823,0.0798,0.0781,0.0771,0.0786,0.0768,0.0776,0.0771,0.0771,0.077,0.079,0.0791,0.0791,0.0792,0,0.1051,0.1038,0.1025,0.1008,0.0998,0.0983,0.0966,0.0962,0.0928,0.092,0.0906,0.0895,0.0873,0.0857,0.0837,0.0822,0.0801,0.0797,0.0798,0.0806,0.0816,0.081,0.0762,0.0797,0.0796,0.0796,0.0795,0.0795,0.1085,0.1082,0.1059,0.1046,0.1031,0.1016,0.101,0.0989,0.0977,0.0957,0.094,0.0928,0.0905,0.0876,0.0862,0.0851,0.0841,0.0843,0.0843,0.0844,0.0847,0.0818,0.0847,0.0847,0.0847,0.0847,0.0846,0,0.1124,0.1108,0.1096,0.1074,0.1063,0.1045,0.1025,0.1017,0.1007,0.0987,0.0974,0.0957,0.0942,0.0916,0.0898,0.0894,0.0884,0.089,0.089,0.0887,0.0857,0.0858,0.0899,0.0899,0.0899,0.0899,0.0899,0.0899,0.1144,0.1138,0.1122,0.1108,0.1092,0.1079,0.107,0.1055,0.104,0.1022,0.101,0.0993,0.097,0.0951,0.0935,0.0928,0.0922,0.0932,0.0922,0.0894,0.0889,0.0885,0.0885,0.0931,0.0931,0.0952,0.0952,0.0953]},{"header":{"parameterUnit":"m.s-1","parameterCategory":1,"la1":30.2991,"la2":30.254,"lo1":-89.0895,"lo2":-89.0444,"dy":0.0017,"dx":0.0017,"nx":28,"ny":28,"refTime":"2025-05-19T21:00:00:Z","depth":0,"parameterNumber":3,"parameterNumberName":"V-component_of_WINDS"},"data":[0,0,0,0,0,0,0,0,0,0,0,0,0,0,0,0,0,0,0,0,0,0,0,0,0,0,0,0,0,0,0,0,0,0,0,0,0,0,0,0,0,0,0,0,0,0,0,0,0,0,0,0,0,0,0,0,0,0,3.6359,3.6359,0,3.6368,3.6368,3.6369,3.6323,3.6322,3.6321,3.6319,3.6328,3.6329,3.6331,0,0,0,0,0,0,0,0,0,0,0,0,0,3.63,3.6301,3.6359,3.6359,3.6359,3.6368,3.6368,3.6369,3.6324,3.6322,3.632,3.6319,3.6328,3.6329,3.6331,0,0,0,0,0,0,0,0,0,0,0,0,0,3.6319,3.6302,3.6359,3.6338,3.6336,3.6368,3.6368,3.6369,3.6324,3.6322,3.632,3.6318,3.6327,3.6329,3.6331,3.6384,0,0,3.6338,3.6339,0,0,0,0,0,0,0,0,3.6318,3.6321,3.6341,3.6339,3.6337,3.6343,3.6351,3.6374,3.6324,3.6328,3.6319,3.6317,3.6334,3.6336,3.6342,3.6384,3.6385,3.6338,3.6339,3.634,3.6341,0,0,0,0,0,0,0,3.6317,3.6321,3.6362,3.6341,3.6339,3.6327,3.6328,3.6355,3.6342,3.6328,3.6325,3.6327,3.6333,3.634,3.6342,3.6385,3.6338,3.634,3.6341,3.6342,3.647,3.6472,0,0,0,0,0,0,3.6318,3.632,3.6362,3.6363,3.6323,3.633,3.6331,3.6343,3.6342,3.634,3.6328,3.6324,3.6337,3.6339,3.6342,3.6403,3.634,3.6342,3.6344,3.6468,3.6471,3.6473,0,0,0,0,0,0,3.6317,3.6323,3.6362,3.634,3.6345,3.6333,3.6347,3.6344,3.6351,3.6342,3.6339,3.6338,3.6336,3.6339,3.6374,3.6403,3.6343,3.6345,3.6466,3.6469,3.6472,3.6527,0,0,0,0,0,0,3.6316,3.6323,3.6343,3.6341,3.6346,3.6394,3.6349,3.6346,3.6355,3.635,3.635,3.6348,3.6334,3.6371,3.6376,3.6405,3.6347,3.6463,3.6467,3.6471,3.6522,3.6531,3.6539,0,0,0,0,0,3.6314,3.6358,3.6344,3.635,3.6371,3.6396,3.6399,3.6382,3.6358,3.6378,3.6372,3.6348,3.6399,3.6375,3.638,3.641,3.6461,3.6466,3.6471,3.6518,3.6529,3.6539,0,0,0,0,0,0,3.6363,3.6357,3.6342,3.6387,3.6392,3.6388,3.6413,3.6394,3.6407,3.6401,3.638,3.638,3.6419,3.6418,3.6391,3.6461,3.6426,3.6432,3.646,3.6471,3.6479,3.6478,3.6349,0,0,0,0,0,3.6379,3.64,3.6394,3.6434,3.6437,3.6425,3.6435,3.6422,3.6426,3.6428,3.6425,3.643,3.6447,3.6459,3.6474,3.6522,3.6521,3.6545,3.6553,3.656,3.6566,3.6591,3.6601,3.6489,3.6489,3.6488,0,0,3.6412,3.6412,3.6426,3.6443,3.6446,3.6468,3.6427,3.6452,3.6468,3.6432,3.6465,3.6463,3.6467,3.6509,3.6527,3.6509,3.6597,3.6566,3.6572,3.6574,3.6597,3.6607,3.6617,3.6492,3.6491,3.6491,0,0,3.6484,3.6486,3.6519,3.6523,3.6527,3.6519,3.6527,3.6526,3.6523,3.6556,3.6529,3.6547,3.6577,3.6581,3.6587,3.666,3.6639,3.6666,3.671,3.6734,3.6743,3.6751,3.6777,3.6786,3.6671,3.6671,3.6671,0,3.6524,3.6557,3.6539,3.6565,3.6574,3.6542,3.6576,3.658,3.6589,3.6595,3.6575,3.6612,3.6612,3.6654,3.6672,3.6678,3.6686,3.6665,3.6743,3.6751,3.6758,3.6782,3.6792,3.6674,3.6674,3.6674,3.6673,0,3.6606,3.6629,3.6655,3.6666,3.6677,3.6707,3.6692,3.6706,3.6691,3.6685,3.6718,3.6718,3.6732,3.6741,3.6727,3.6781,3.677,3.6747,3.6711,3.6772,3.6795,3.6804,3.6679,3.6678,3.6677,3.6676,0,0,3.671,3.6709,3.6719,3.6723,3.6726,3.6743,3.6771,3.6785,3.6797,3.6804,3.6827,3.6853,3.6832,3.6838,3.6825,3.6846,3.6904,3.682,3.682,3.6836,3.6963,3.698,3.6991,3.689,3.6891,3.6893,3.6962,0,3.678,3.6828,3.6813,3.6862,3.6882,3.6853,3.6877,3.6881,3.6876,3.6892,3.6885,3.6904,3.6875,3.6879,3.6899,3.6893,3.6929,3.6887,3.691,3.6912,3.691,3.7003,3.7021,3.7087,3.6971,3.6972,3.6974,0,3.6868,3.6879,3.6931,3.693,3.6938,3.696,3.6972,3.6988,3.6991,3.6986,3.6993,3.6975,3.7002,3.6966,3.7003,3.6975,3.6984,3.6982,3.6984,3.6986,3.6946,3.7007,3.7108,3.7117,3.6987,3.6986,3.6985,0,3.6938,3.6966,3.7,3.7005,3.7004,3.702,3.7021,3.7023,3.7032,3.7042,3.7048,3.7061,3.7068,3.7079,3.7064,3.7039,3.7103,3.7066,3.7099,3.7099,3.7113,3.7113,3.7217,3.7119,3.7119,3.7119,3.7119,0,3.7018,3.7051,3.7032,3.7053,3.7088,3.7069,3.7105,3.7102,3.7103,3.7123,3.7098,3.7117,3.7096,3.7113,3.7102,3.7134,3.7137,3.7133,3.713,3.7136,3.7136,3.7141,3.7136,3.7121,3.7121,3.712,3.712,0,3.7103,3.7091,3.7126,3.7123,3.7123,3.7149,3.7146,3.7165,3.7157,3.7183,3.7187,3.7176,3.7194,3.718,3.7199,3.7191,3.7233,3.7223,3.7232,3.723,3.7263,3.726,3.7374,3.7388,3.7281,3.7282,3.7283,0,3.7155,3.7179,3.7178,3.719,3.7192,3.7211,3.722,3.7202,3.7213,3.7219,3.7238,3.7254,3.7266,3.7297,3.729,3.7303,3.7294,3.7333,3.7296,3.73,3.7294,3.7293,3.7295,3.734,3.7341,3.7342,3.7343,0,3.7248,3.7241,3.7256,3.7269,3.7282,3.7291,3.7298,3.7309,3.729,3.7304,3.7323,3.7332,3.7351,3.7367,3.7378,3.7378,3.7358,3.7355,3.7363,3.7369,3.7373,3.7372,3.7253,3.7352,3.7352,3.7351,3.735,3.735,3.7318,3.7338,3.7341,3.7358,3.7362,3.7369,3.7387,3.7381,3.7397,3.7411,3.7399,3.7421,3.7424,3.7436,3.7439,3.7456,3.744,3.7452,3.7455,3.7458,3.7463,3.7371,3.7458,3.7457,3.7457,3.7457,3.7457,0,3.741,3.741,3.7427,3.7437,3.7451,3.7431,3.7437,3.745,3.747,3.7474,3.7487,3.7508,3.7524,3.7518,3.7532,3.7546,3.7537,3.755,3.7549,3.755,3.7476,3.7468,3.7558,3.7558,3.7557,3.7557,3.7557,3.7557,3.746,3.7493,3.7486,3.752,3.752,3.7542,3.7547,3.7554,3.7557,3.7582,3.7595,3.7591,3.7591,3.7604,3.7618,3.7615,3.7622,3.7638,3.7633,3.7565,3.7555,3.7545,3.7537,3.764,3.764,3.7704,3.7705,3.7705]}]]